Location: Angalakud?ru Malepalle
(16.2514°N, 80.6003°E)
Time: 10:34:16
(UTC+00:00)

Daily predictions for brighter satellites

Satellite Brightness Start Highest point End
(mag) Time Altitude Azimuth Time Altitude Azimuth Time Altitude Azimuth
Cosmos 1500 Rocket 4.3 13:16:07 10° NNE 13:20:00 33° E 13:23:52 10° SSE
Cosmos 1933 4.0 13:18:27 10° SSE 13:22:08 34° E 13:25:47 10° NNE
Cosmos 2208 Rocket 4.2 13:17:28 10° NNW 13:22:56 85° WSW 13:28:20 10° S
CZ-4 R/B 1.6 13:21:14 10° SSE 13:25:12 50° ENE 13:29:05 10° N
Delta 202 4.2 13:18:09 10° W 13:25:56 74° N 13:31:33 10° E
Ariane 42L Rocket 4.2 13:22:41 10° SW 13:26:35 29° SSE 13:33:09 10° ESE
Cosmos 2278 Rocket 2.2 13:23:05 10° S 13:28:38 59° ESE 13:34:10 10° NNE
SAR-Lupe-1 4.5 13:26:03 10° NNE 13:29:24 40° E 13:32:46 10° S
H-2A R/B 1.9 13:24:35 10° SSE 13:29:29 84° ENE 13:34:26 10° N
YAOGAN 1 2.7 13:27:57 10° SSE 13:32:09 54° ENE 13:36:22 10° N
ATLAS 5 CENTAUR R/B 3.7 13:29:20 10° N 13:34:38 26° ENE 13:40:05 11° ESE
Cosmos 1242 Rocket 2.4 13:35:43 10° S 13:39:18 83° E 13:42:49 10° N
IRS-1C Rocket 4.1 13:35:21 10° SSE 13:40:35 75° ENE 13:45:49 10° N
BREEZE M DEB (TANK) 4.3 13:31:52 10° NW 13:40:44 40° WSW 13:43:48 10° S
Okean O Rocket 4.3 13:38:42 10° SSW 13:42:02 21° W 13:45:21 10° NW
Meteor 1-26 Rocket 4.5 13:37:45 10° SSE 13:43:15 48° E 13:48:33 10° NNE
DMSP B5D2-2 4.1 13:38:26 10° NNE 13:43:44 86° ESE 13:49:00 10° S
GPS 2-17 Rocket1 3.2 13:39:22 10° WNW 13:43:55 70° N 13:48:02 13° E
SJ-11-01 4.5 13:43:35 10° S 13:48:16 75° WSW 13:52:57 10° NNW
ATLAS 5 CENTAUR R/B 4.5 13:45:08 10° WNW 13:48:55 35° SW 14:00:01 10° S
S3M 4.1 13:43:45 10° S 13:50:09 88° E 13:56:30 10° N
SL-4 R/B 3.2 13:47:04 10° NW 13:51:21 46° SW 13:55:51 10° SSE
Cosmos 1461 4.4 13:48:24 10° SSE 13:51:44 20° ESE 13:55:07 10° ENE
H-II Stage 2 4.1 13:27:21 10° WNW 13:58:57 62° SW 14:02:50 18° SE
Intercosmos 24 4.1 13:56:57 10° S 14:01:06 69° W 14:04:37 10° N
Okean-O 2.7 13:58:18 10° S 14:02:42 77° WSW 14:07:08 10° NNW
DELTA 2 R/B (1) 4.3 13:58:55 10° NW 14:04:09 41° NE 14:07:24 21° E
Cosmos 2315 Rocket 4.0 14:04:21 10° S 14:10:37 63° E 14:16:53 10° NNE
ARGOS 3.8 14:06:29 10° S 14:11:42 55° W 14:16:55 10° NNW
Cosmos 1812 3.3 14:16:41 34° E 14:16:41 34° E 14:20:03 10° NNE
Cosmos 1515 Rocket 4.2 14:16:23 33° ESE 14:16:52 34° E 14:20:50 10° NNE
USA 186 3.4 14:18:29 16° NNE 14:18:29 16° NNE 14:19:12 10° NNE
Sakura Rocket 3.2 14:13:05 10° WSW 14:17:06 74° NNW 14:21:34 14° ENE
CZ-2C R/B 4.1 14:17:55 10° WNW 14:20:10 14° NNW 14:22:20 10° N
Geosat 4.3 14:22:36 34° ESE 14:24:16 47° ENE 14:29:04 10° N
Cosmos 1328 Rocket 3.6 14:21:12 10° S 14:25:37 82° W 14:30:02 10° N
OBJECT-B 2.1 14:26:55 27° NE 14:26:55 27° NE 14:28:50 10° N
BREEZE-M DEB (TANK) 4.4 14:24:52 10° N 14:27:31 23° ENE 14:27:32 23° ENE
Cosmos 1805 Rocket 4.5 14:29:11 10° NNW 14:33:23 47° W 14:37:05 13° SSW
Cosmos 1633 Rocket 3.4 14:30:21 10° N 14:34:16 44° ENE 14:34:16 44° ENE
Cosmos 2297 3.8 14:33:08 31° SSE 14:35:30 49° ESE 14:40:57 10° NNE
USA 290 4.2 14:33:07 10° NW 14:35:52 27° WSW 14:37:04 21° SW
GPS 2-18 Rocket1 3.5 14:36:08 10° W 14:39:29 50° SW 14:39:29 50° SW
Skynet4D Del rocket 3.8 14:39:44 10° WSW 14:45:04 66° NNW 14:48:00 29° NE
Cosmos 1943 Rocket 3.1 14:49:34 31° NE 14:49:34 31° NE 14:52:45 10° NNE
MetOp-A 4.3 14:45:26 31° S 14:48:02 70° WSW 14:53:21 10° NNW
Ariane Rocket 3.5 14:49:16 42° NE 14:49:16 42° NE 14:53:28 10° N
SJ 16-02 3.4 14:46:42 10° SW 14:50:28 28° WNW 14:54:15 10° NNW
Cosmos 990 Rocket 3.8 14:54:21 53° S 14:55:38 89° ESE 15:00:52 10° NNE
Meteosat 1 Rocket2 3.5 14:56:10 10° WSW 14:59:08 52° WNW 14:59:08 52° WNW
SJ-6B 3.7 15:02:06 48° WNW 15:02:06 48° WNW 15:05:18 10° NNW
Cosmos 1898 Rocket 3.6 15:05:09 64° NNE 15:05:09 64° NNE 15:09:37 10° NNE
Cosmos 2082 Rocket 4.1 15:00:24 10° NNE 15:02:16 16° NE 15:02:16 16° NE
X-37B 3.5 15:05:39 10° NW 15:06:27 16° NNW 15:06:27 16° NNW
USA 267 3.8 15:11:20 40° NE 15:11:36 40° NE 15:17:37 10° NNW
MOS 1 4.2 15:15:36 82° NW 15:15:36 82° NW 15:21:03 10° NNW
Meteor 1-10 Rocket 4.4 15:14:56 58° SW 15:15:43 66° W 15:21:18 10° N
ATLAS 5 CENTAUR R/B 3.6 15:13:07 10° NW 15:19:18 41° WSW 15:21:40 32° SSW
Centaur D-1AR AC-36 3.2 15:18:36 10° WNW 15:20:48 28° NW 15:20:48 28° NW
COSMOS 2406 3.8 15:26:10 10° NNW 15:30:22 52° NNW 15:30:22 52° NNW
CZ-3C R/B 2.9 15:31:00 10° WNW 15:35:08 86° SSW 15:35:24 83° SE
CZ-3C R/B 2.9 15:31:00 10° WNW 15:35:09 86° SSW 15:35:24 83° SE
CZ-3C R/B 2.9 15:31:00 10° WNW 15:35:09 86° SSW 15:35:25 83° SE
CZ-3C R/B 2.9 15:31:00 10° WNW 15:35:09 86° SSW 15:35:23 83° SE
CZ-3C R/B 2.9 15:31:00 10° WNW 15:35:09 86° S 15:35:24 83° SE
CZ-4C R/B 3.1 15:39:16 10° NNW 15:47:33 76° WSW 15:47:38 76° WSW
CZ-3B R/B 4.2 15:39:05 10° WSW 15:47:56 40° SW 15:47:56 40° SW
Cosmos 1833 Rocket 4.0 15:48:01 10° NNW 15:51:33 36° NW 15:51:33 36° NW
ATLAS 2AS CENTAUR R/B 4.5 16:30:19 10° NNW 16:32:54 24° N 16:32:54 24° N
Atlas Centaur 2 4.5 20:09:07 29° NNE 20:09:07 29° NNE 20:13:03 10° NE
Cosmos 2360 Rocket 4.4 20:48:25 21° NE 20:48:25 21° NE 20:50:33 10° NE
ADEOS Rocket 4.3 20:55:56 43° E 20:56:51 45° ENE 21:04:04 10° N
USA 215 3.9 21:21:22 10° ESE 21:27:39 51° NE 21:33:55 10° NNW
CENTAUR R/B 4.1 21:32:27 21° NNW 21:32:27 21° NNW 21:35:03 10° N
SL-16 R/B 4.4 21:48:53 13° NNW 21:48:53 13° NNW 21:49:47 10° NNW
Cosmos 1072 Rocket 4.4 21:42:32 10° N 21:48:36 80° NW 21:48:36 80° NW
CZ-2C R/B 4.4 21:49:33 10° NNE 21:52:31 34° ENE 21:52:31 34° ENE
Cosmos 2333 Rocket 2.3 21:53:53 66° SE 21:54:14 68° ESE 21:59:57 10° NNE
Atlas Centaur 2 4.4 21:51:40 17° NW 21:56:16 28° N 22:02:20 10° NE
Cosmos 1850 Rocket 4.3 21:59:07 10° N 22:04:24 66° ENE 22:07:41 23° SSE
Spot 4 Rocket 4.0 21:59:41 10° N 22:04:28 75° NNW 22:04:28 75° NNW
SL-08 R/B 3.7 22:06:27 34° SE 22:08:18 60° ENE 22:12:52 10° N
ATLAS 3B R/B 3.1 22:06:39 34° S 22:09:18 54° ESE 22:15:38 10° NE
GPS 2-15 Rocket1 3.6 22:11:03 49° SE 22:11:03 49° SE 22:14:36 10° ESE
Cosmos 2322 Rocket 4.4 22:12:02 12° NW 22:12:02 12° NW 22:12:55 10° NW
FUSE 3.7 22:10:06 85° WSW 22:10:14 89° NNW 22:15:36 10° ENE
Cosmos 2333 4.2 22:11:24 62° WNW 22:11:31 62° WNW 22:17:13 10° N
Genesis I 3.9 22:14:18 50° NE 22:14:18 50° NE 22:17:13 10° NNE
Tsikada Rocket 4.1 22:15:22 52° WSW 22:15:50 54° W 22:22:03 10° N
Cosmos 1241 Rocket 4.5 22:11:06 10° NNW 22:17:27 80° ENE 22:23:39 10° SSE
Cosmos 1741 Rocket 3.9 22:12:35 10° NNW 22:17:48 88° ENE 22:21:35 19° SSE
Skynet4D Del rocket 4.4 22:16:20 45° W 22:18:32 60° SSW 22:26:38 10° SE
Cosmos 2263 Rocket 2.6 22:15:55 10° NNW 22:20:12 42° WNW 22:20:12 42° WNW
Aureole 1 Rocket 3.7 22:18:54 10° N 22:23:30 71° ENE 22:29:37 10° SSE
Cosmos 2219 Rocket 2.1 22:25:08 51° SW 22:26:27 68° WNW 22:32:05 10° N
Cosmos 1455 4.2 22:23:31 10° NNW 22:24:44 19° NNW 22:24:44 19° NNW
Intelsat 5-3 Rocket 4.5 22:19:47 19° W 22:27:59 50° NNW 22:32:55 10° ENE
Cosmos 2058 Rocket 3.4 22:24:56 10° NNW 22:28:44 49° WNW 22:28:44 49° WNW
Cosmos 2360 Rocket 3.8 22:30:11 18° WNW 22:30:11 18° WNW 22:33:11 10° NNW
CZ-2C R/B 2.6 22:27:08 10° N 22:32:12 55° WNW 22:33:20 45° WSW
SWIFT 3.1 22:31:22 35° NW 22:32:39 47° N 22:36:45 10° ENE
ARIANE 5 R/B 4.2 22:29:50 10° NNW 22:32:04 17° NW 22:32:04 17° NW
GPS 2-12 Rocket1 2.9 22:33:09 56° W 22:34:03 80° NNW 22:38:32 10° ENE
Meteor 1-11 4.2 22:31:40 29° SSW 22:34:45 77° W 22:40:31 10° N
Cosmos 1992 Rocket 3.8 22:34:49 38° SSW 22:36:51 76° WNW 22:42:02 10° N
USA 32 4.4 22:32:03 10° NNW 22:36:55 40° W 22:37:18 39° W
Cosmos 1602 Rocket 3.8 22:37:01 46° W 22:37:01 46° W 22:41:09 10° N
Cosmos 1758 Rocket 3.5 22:36:59 31° S 22:39:06 90° SSE 22:43:33 10° N
COSMOS 2428 2.7 22:38:33 35° SW 22:40:50 62° WNW 22:46:29 10° N
ADEOS Rocket 4.5 22:42:53 24° W 22:42:53 24° W 22:48:03 10° NW
Cosmos 2034 Rocket 4.4 22:40:14 10° NNW 22:45:58 39° W 22:48:49 25° SW
Meteor 2-1 Rocket 4.2 22:40:52 10° NNW 22:46:14 54° W 22:51:07 12° S
Cosmos 1634 Rocket 4.0 22:45:11 10° N 22:51:25 86° E 22:57:42 10° S
ISS -2.0 22:54:06 20° S 22:54:06 20° S 22:55:22 10° SSE
Aurora 2 Rocket 4.4 22:52:26 14° WNW 22:56:30 38° N 23:03:14 10° ENE
Hubble Space Telescope 1.2 22:55:49 28° W 22:57:40 52° NNW 23:01:41 10° NE
Cosmos 1980 4.2 22:53:30 10° S 22:59:02 60° ESE 23:04:37 10° NNE
CZ-3B R/B 1.9 23:00:42 19° NW 23:02:11 45° NNE 23:06:24 10° E
NOSS 0 Rocket 3.9 22:57:05 11° SSW 23:02:58 87° WNW 23:09:09 10° NNE
Cosmos 2084 3.7 23:00:32 10° NW 23:04:58 53° WSW 23:09:27 10° S
PSLV R/B 4.4 23:06:14 10° NNW 23:09:55 30° WNW 23:12:06 19° WSW
USA 215 4.1 23:05:18 10° S 23:10:33 26° SW 23:15:49 10° WNW
FENGYUN 3A 4.3 23:06:05 10° N 23:10:58 36° WNW 23:15:03 14° SW
Palapa 6 Rocket 2.6 23:11:36 21° WSW 23:13:56 73° SSE 23:17:59 10° ENE
Cosmos 1844 4.3 23:09:24 10° N 23:14:53 61° ENE 23:20:22 10° SSE
Cosmos 1484 Rocket 3.3 23:12:15 10° N 23:15:47 37° WNW 23:18:39 14° SW
In-Cosmos 22 Rocket 4.2 23:10:15 10° SSW 23:15:59 73° W 23:21:48 10° N
ALOS 3.2 23:13:17 10° NNW 23:17:15 29° WNW 23:20:29 14° SW
Meteor 1-31 Rocket 3.1 23:15:50 10° NNE 23:19:44 68° E 23:23:37 10° S
Cosmos 2142 Rocket 4.4 23:13:39 10° N 23:19:48 80° W 23:25:54 10° S
Meteor 1-4 Rocket 2.5 23:16:11 10° N 23:19:50 85° E 23:23:24 10° S
GPS 2-14 Rocket1 2.6 23:19:42 11° W 23:23:23 75° SSW 23:27:24 10° ESE
ATLAS 2A CENTAUR R/B 3.9 23:19:28 10° NW 23:23:48 37° NNE 23:38:20 10° E
Cosmos 1812 Rocket 3.9 23:21:51 10° NNW 23:25:56 43° W 23:30:02 10° SSW
Cosmos 405 Rocket 3.7 23:25:35 10° S 23:29:30 52° E 23:33:21 10° NNE
Aureole 3 3.4 23:26:56 10° NNW 23:29:38 31° W 23:32:19 10° SSW
CZ-4C R/B 4.1 23:27:17 10° SSE 23:30:21 44° ENE 23:33:22 10° N
Cosmos 2279 Rocket 4.0 23:25:40 10° N 23:31:52 69° W 23:38:04 10° S
SJ-12 3.9 23:28:45 10° N 23:32:52 80° WNW 23:36:57 10° SSW
Chandra Rocket (1) 4.1 23:31:45 10° S 23:33:15 12° SSE 23:34:29 10° SE
Cosmos 2237 Rocket 2.4 23:34:46 10° SSW 23:40:16 53° WNW 23:45:46 10° N
ADEOS 3.6 23:35:28 10° N 23:40:38 67° WNW 23:45:47 10° SSW
Cosmos 2098 Rocket 4.2 23:37:58 10° S 23:44:20 78° W 23:51:39 10° N
Atlas Centaur 2 4.3 23:40:54 10° NW 23:47:09 28° N 23:52:24 10° ENE
Cosmos 968 Rocket 3.4 23:42:08 10° NNW 23:47:12 71° WSW 23:52:15 10° S
